Leadville, CO

6:46 AM MDT on October 22, 2017 (GMT -0600)
Lake County

Weather History for KLXV - May, 2012

Change the Weather History Date:

Tuesday, May 29, 2012

  Actual Average Record
Temperature  
Mean Temperature 44 °F -  
Max Temperature 63 °F 59 °F 73 °F (2000)
Min Temperature 25 °F 30 °F 22 °F (1991)
Degree Days  
Heating Degree Days 21 20  
Month to date heating degree days 641 712  
Since 1 July heating degree days 10131 10713  
Cooling Degree Days 0 0  
Month to date cooling degree days 0 0  
Year to date cooling degree days 0 0  
Moisture  
Dew Point 11 °F    
Average Humidity 31    
Maximum Humidity 55    
Minimum Humidity 7    
Precipitation  
Precipitation 0.00 in 0.03 in 0.18 in (2005)
Month to date precipitation 0.53 0.75  
Year to date precipitation 3.70 4.08  
Snow  
Snow 0.00 in - - ()
Month to date snowfall 0.0  
Snow Depth 0.00 in    
Sea Level Pressure  
Sea Level Pressure 29.94 in    
Wind  
Wind Speed 5 mph (North)    
Max Wind Speed 18 mph    
Max Gust Speed 26 mph    
Visibility 10 miles    
Events      
T = Trace of Precipitation, MM = Missing Value Source: NWS Daily Summary

Daily Weather History Graph

Daily Weather History Graph

Search for Another Location

Airport or City:

Trip Planner

Search our weather history database for the weather conditions in past years. The results will help you decide how hot, cold, wet, or windy it might be!

Date:

Astronomy

May. 29, 2012 Rise Set
Actual Time 5:41 AM MDT 8:24 PM MDT
Civil Twilight 5:10 AM MDT 8:55 PM MDT
Nautical Twilight 4:31 AM MDT 9:34 PM MDT
Astronomical Twilight 3:46 AM MDT 10:19 PM MDT
Moon 2:00 PM MDT (5/29) 1:34 AM MDT (5/29)
Length of Visible Light 15h 44m
Length of Day
14h 42m
First Quarter, 60% of the Moon is Illuminated
May 29
First Quarter
Jun 4
Full
Jun 11
Last Quarter
Jun 19
New
Jun 26
First Quarter

Hourly Weather History & Observations

Time (MDT) Temp. Windchill Dew Point Humidity Pressure Visibility Wind Dir Wind Speed Gust Speed Precip Events Conditions
12:53 AM 32.0 °F - 12.9 °F 45% 29.98 in 10.0 mi Calm Calm - N/A   Clear
1:53 AM 30.0 °F - 12.9 °F 49% 29.97 in 10.0 mi Calm Calm - N/A   Clear
2:53 AM 28.0 °F 24.2 °F 12.9 °F 53% 29.99 in 10.0 mi ENE 3.5 mph - N/A   Clear
3:53 AM 28.0 °F 24.2 °F 14.0 °F 56% 30.01 in 10.0 mi ENE 3.5 mph - N/A   Clear
4:53 AM 26.1 °F - 12.9 °F 58% 30.01 in 10.0 mi Calm Calm - N/A   Clear
5:53 AM 27.0 °F - 12.9 °F 56% 30.02 in 10.0 mi Calm Calm - N/A   Clear
6:53 AM 32.0 °F - 14.0 °F 48% 30.01 in 10.0 mi Calm Calm - N/A   Clear
7:53 AM 39.9 °F 37.8 °F 16.0 °F 38% 29.97 in 10.0 mi North 3.5 mph - N/A   Clear
8:53 AM 46.0 °F - 15.1 °F 29% 29.96 in 10.0 mi Calm Calm - N/A   Clear
9:53 AM 50.0 °F - 12.0 °F 22% 29.96 in 10.0 mi NNE 10.4 mph 17.3 mph N/A   Clear
10:53 AM 53.1 °F - 14.0 °F 21% 29.95 in 10.0 mi North 9.2 mph 19.6 mph N/A   Clear
11:53 AM 55.0 °F - 12.0 °F 18% 29.95 in - Variable 4.6 mph 16.1 mph N/A   Clear
12:53 PM 57.9 °F - 12.9 °F 17% 29.92 in 10.0 mi North - - N/A   Clear
1:53 PM 60.1 °F - 10.9 °F 14% 29.91 in 10.0 mi North 11.5 mph 20.7 mph N/A   Clear
2:53 PM 60.1 °F - 10.0 °F 14% 29.91 in 10.0 mi Variable 4.6 mph 19.6 mph N/A   Unknown
3:53 PM 62.1 °F - 10.9 °F 13% 29.89 in 10.0 mi NW 11.5 mph 20.7 mph N/A   Clear
4:53 PM 61.0 °F - 9.0 °F 13% 29.89 in 10.0 mi Variable 6.9 mph 19.6 mph N/A   Partly Cloudy
5:53 PM 59.0 °F - -4.0 °F 8% 29.91 in 10.0 mi SW 10.4 mph 21.9 mph N/A   Clear
6:53 PM 59.0 °F - 3.0 °F 11% 29.87 in 10.0 mi West 12.7 mph - N/A   Clear
7:53 PM 55.9 °F - 3.9 °F 12% 29.86 in 10.0 mi WNW 9.2 mph - N/A   Clear
8:53 PM 48.9 °F - 8.1 °F 19% 29.86 in 10.0 mi North 3.5 mph - N/A   Clear
9:53 PM 46.0 °F 43.9 °F 8.1 °F 21% 29.87 in 10.0 mi NE 4.6 mph - N/A   Clear
10:53 PM 39.0 °F 34.8 °F 10.9 °F 32% 29.91 in 10.0 mi NE 5.8 mph - N/A   Clear
11:53 PM 43.0 °F - 10.9 °F 27% 29.87 in 10.0 mi Calm Calm - N/A   Clear